Tracking 19909 objects as of 21-Oct-2019
HD Live streaming from Space Station
objects crossing your sky now

THORAD DELTA 1 DEB

Track THORAD DELTA 1 DEB now!
10-day predictions


NORAD ID: 42625
Int'l Code: 1974-089GS
Perigee: 1,495.5 km
Apogee: 1,502.8 km
Inclination: 101.7 °
Period: 115.8 minutes
Semi major axis: 7870 km
RCS: Unknown
Launch date: November 15, 1974
Source: United States (US)
Launch site: AIR FORCE WESTERN TEST RANGE (AFWTR)

Note: This is SATELLITE DEBRIS
aabbcc
Your satellite tracking list
Your tracking list is empty




NASA's NSSDC Master Catalog

Two Line Element Set (TLE):
1 42625U 74089GS  19293.41572017  .00000043  00000-0  62268-3 0  9992
2 42625 101.7352 273.7448 0004642  83.2124  73.4147 12.43441952245351
Source of the keplerian elements: AFSPC